Home   Weather   Ludwigsfelde   Past weeks

Flag for Germany Past Weather in Ludwigsfelde, Brandenburg, Germany — Yesterday and Last 2 Weeks

Now
28 °F

Snow flurries. Overcast.


Feels Like: 22 °F
Forecast: 31 / 36 °F
Wind: 6 mph from West

Location: Berlin-Schoenefeld

Current Time: Dec 6, 2016 at 3:57:36 am

Latest Report: Dec 6, 2016 at 3:20 am


Visibility: N/A

Pressure: 30.30 "Hg

Humidity: 100%

Dew Point: 28 °F

Location of LudwigsfeldeLocation

Past Weather in Ludwigsfelde — Graph

°F

Ludwigsfelde Temperature Yesterday

Maximum temperature yesterday: 30 °F (at 1:50 pm)
Minimum temperature yesterday: 23 °F (at 6:50 am)
Average temperature yesterday: 25 °F

High & Low Weather Summary for the Past Weeks

 TemperatureHumidityPressure
High55 °F (Nov 21, 12:50 pm)100% (Nov 22, 8:20 pm)30.54 "Hg (Nov 22, 8:20 pm)
Low19 °F (Nov 29, 2:20 am)56% (Nov 28, 1:50 pm)29.74 "Hg (Nov 21, 1:20 pm)
Average36 °F88%30.16 "Hg
* Reported Nov 21 2:20 am — Dec 6 2:20 am, Ludwigsfelde, Weather by CustomWeather, © 2016

Note: Actual official high and low records may vary slightly from our data, if they occured in-between our weather recording intervals... More about our weather records

Advertising

Ludwigsfelde Weather History for the Previous 24 Hours

Scroll right to see more
 ConditionsComfort  
Time TempWeatherWind HumidityBarometerVisibility
2:20 am
Tue, Dec 6
28 °FPassing clouds.8 mph93%30.30 "HgN/A
1:50 am28 °FPassing clouds.8 mph93%30.30 "HgN/A
1:20 am27 °FPassing clouds.8 mph100%30.30 "HgN/A
12:50 am27 °FPassing clouds.8 mph100%30.30 "HgN/A
12:20 am27 °FPassing clouds.9 mph93%30.30 "HgN/A
11:50 pm
Mon, Dec 5
25 °FPassing clouds.8 mph93%30.30 "HgN/A
11:20 pm25 °FPassing clouds.6 mph100%30.30 "Hg6 mi
10:50 pm23 °FPassing clouds.5 mph100%30.30 "Hg6 mi
10:20 pm23 °FClear.3 mph93%30.30 "Hg6 mi
9:50 pm23 °FClear.5 mph100%30.30 "Hg6 mi
9:20 pm23 °FClear.5 mph100%30.30 "Hg10 mi
8:50 pm23 °FClear.5 mph100%30.30 "Hg10 mi
8:20 pm23 °FClear.3 mph93%30.30 "Hg5 mi
7:50 pm23 °FClear.3 mph100%30.30 "Hg4 mi
7:20 pm23 °FIce fog.7 mph100%30.30 "Hg3 mi
6:50 pm23 °FIce fog.5 mph100%30.30 "Hg2 mi
6:20 pm25 °FIce fog.5 mph100%30.27 "Hg2 mi
5:50 pm25 °FIce fog.5 mph93%30.27 "Hg3 mi
5:20 pm27 °FFog.3 mph100%30.30 "Hg4 mi
4:50 pm27 °FClear.5 mph93%30.30 "Hg4 mi
4:20 pm27 °FClear.3 mph93%30.30 "Hg10 mi
3:50 pm28 °FSunny.3 mph93%30.30 "Hg10 mi
3:20 pm28 °FSunny.5 mph100%30.30 "Hg10 mi
2:50 pm30 °FSunny.6 mph93%30.30 "Hg10 mi
2:20 pm30 °FClear.6 mph100%30.30 "Hg6 mi
1:50 pm30 °FClear.5 mph93%30.30 "Hg6 mi
1:20 pm28 °FClear.3 mph100%30.30 "Hg5 mi
12:50 pm28 °FClear.3 mph100%30.33 "Hg4 mi
12:20 pm28 °FClear.3 mph100%30.33 "Hg4 mi
11:50 am28 °FScattered clouds.No wind93%30.33 "Hg4 mi
11:20 am27 °FScattered clouds.No wind100%30.33 "Hg4 mi
10:50 am27 °FScattered clouds.No wind93%30.33 "Hg4 mi
10:20 am25 °FIce fog.2 mph100%30.36 "Hg3 mi
9:50 am23 °FIce fog.1 mph100%30.36 "Hg1 mi
9:20 am23 °FIce fog.3 mph100%30.36 "Hg1 mi
8:50 am23 °FIce fog.5 mph93%30.36 "Hg0 mi
8:20 am23 °FIce fog.3 mph100%30.36 "Hg0 mi
7:50 am23 °FIce fog.5 mph100%30.36 "Hg0 mi
7:20 am25 °FIce fog.5 mph93%30.36 "Hg0 mi
6:50 am23 °FIce fog.3 mph100%30.36 "Hg0 mi
6:20 am25 °FIce fog.3 mph93%30.36 "Hg0 mi
5:50 am25 °FIce fog.2 mph93%30.39 "Hg0 mi
5:20 am25 °FIce fog.3 mph93%30.39 "Hg0 mi
4:50 am25 °FIce fog.2 mph93%30.39 "Hg0 mi
4:20 am25 °FIce fog.3 mph93%30.39 "Hg0 mi
3:50 am25 °FIce fog.2 mph100%30.39 "Hg0 mi
3:20 am25 °FIce fog.No wind100%30.42 "Hg0 mi
Weather by CustomWeather, © 2016

See weather overviewHow to use our weather pages